Other Public Products
Issued by NWS Charleston, SC

Current Version | Previous Version | Text Only | Print | Product List | Glossary Off
Versions: 1 2 3 4 5 6 7 8 9 10 11 12 13 14 15 16 17 18 19 20 21 22 23 24 25 26 27 28 29 30 31 32 33 34 35 36 37 38 39 40 41 42 43 44 45 46 47 48 49 50

000
FPUS82 KCHS 192127
OPUCHS

TEST...KCHS/KSAV Gateway Observations...TEST
National Weather Service Charleston SC
400 PM EST FRI JAN 19 2018

NOTE: "fair" indicates few or no clouds below 12,000 feet with no
significant weather and/or obstructions to visibility.

SCZ050-WAZ558-NCZ071-TXZ119-213-PAZ071-DCZ001-FLZ074-172-MI076-
NYZ176-178-MAZ016-IL014-TNZ027-NJZ106-GAZ044-MD014-192200-

...Gateway Observations for Charleston International...

CITY           SKY/WX    TMP DP  RH WIND       PRES   REMARKS
Chas Airport   FAIR      62  17  17 W5        30.20F
Seattle        CLOUDY    46  37  71 S10       29.89F
Charlotte      FAIR      53  20  27 S5        30.16F
Dallas DFW     PTSUNNY   55  40  56 S23G29    30.05F
Dallas Love    CLOUDY    53  37  54 S17       30.07F
Philladelphia  FAIR      45  18  34 W13       30.02F
Wash National  FAIR      47  20  34 S10       30.04F
Baltimore      FAIR      51  13  21 W6        30.03S
Miami          PTSUNNY   70  51  51 E14       30.20S
Detroit        PTSUNNY   35  22  58 SW18      29.86S WCI  24
Newark         MOCLDY    39  17  41 SW10      29.99R WCI  32
Laguardia      FAIR      38  16  40 SW6       29.98R WCI  33
J F K          MOCLDY    37  18  46 W15       30.00S WCI  28
Boston Logan   CLOUDY    33  21  61 W7        29.94R WCI  27
Ft. Lauderdale PTSUNNY   66  53  63 E9        30.19F
Chicago O`Hare PTSUNNY   39  24  55 SW21G30   29.76S WCI  29
Chicago Midway PTSUNNY   39  26  59 S20G26    29.79S WCI  29
Houston Bush   PTSUNNY   56  50  80 SE9       30.16F
Houston Hobby  HVY RAIN  51  51 100 E14       30.13F FOG
Nashville      FAIR      48  19  31 S12G18    30.19F
Atlanta        FAIR      54   6  14 W5        30.23F

$$

GAZ044-118-TXZ119-213-NCZ071-DCZ001-MDZ014-506-PAZ021-071-NJZ106-
NYZ176-178-MAZ106-OHZ011-021-055-MIZ076-KYZ091-ILZ014-INZ047-
MNZ060-ONZ431-192200-

...Gateway Observations for Savannah International...

CITY           SKY/WX    TMP DP  RH WIND       PRES   REMARKS
Savannah Arpt  FAIR      61  11  14 W9        30.23F
Atlanta        FAIR      54   6  14 W5        30.23F
Charlotte      FAIR      53  20  27 S5        30.16F
Dallas DFW     PTSUNNY   55  40  56 S23G29    30.05F
Houston Bush   PTSUNNY   56  50  80 SE9       30.16F
Wash National  FAIR      47  20  34 S10       30.04F
Wash Dulles    FAIR      52   8  17 SW8       30.03S
Baltimore      FAIR      51  13  21 W6        30.03S
Philadelphia   FAIR      45  18  34 W13       30.02F
Newark         MOCLDY    39  17  41 SW10      29.99R WCI  32
Laguardia      FAIR      38  16  40 SW6       29.98R WCI  33
J F K          MOCLDY    37  18  46 W15       30.00S WCI  28
Boston         CLOUDY    33  21  61 W7        29.94R WCI  27
Pittsburg      FAIR      39  17  41 SW12      30.00S WCI  32
Akron          FAIR      34  18  52 SW17G29   29.96S WCI  23
Cleveland      FAIR      38  19  46 S21G31    29.93F WCI  28
Cincinnati     PTSUNNY   38  20  48 S15       30.05F WCI  29
Columbus       FAIR      36  20  52 SW13      30.04S WCI  28
Detroit        PTSUNNY   35  22  58 SW18      29.86S WCI  24
Chicago O`Hare PTSUNNY   39  24  55 SW21G30   29.76S WCI  29
Minneapolis    PTSUNNY   42  30  62 SW10      29.49S
Indianapolis   PTSUNNY   40  23  50 S13       29.98F WCI  32
Toronto Canada MOCLDY    34  21  60 SW12      29.78F WCI  25

$$




USA.gov is the U.S. government's official web portal to all federal, state and local government web resources and services.